Location: Mexico
(19.4000°N, 99.1500°W)
Time: 02:04:49
(UTC-06:00)

ISS - Pass Details

Date: 21 November 2017
Orbit: 402 x 407 km, 51.6° (Epoch: 21 November)

Event Time Altitude Azimuth Distance (km) Brightness Sun altitude
Rises 18:33:33 0° 178° (S) 2,309 0.2 -9.0°
Reaches altitude 10° 18:37:05 10° 138° (SE) 1,452 -1.3 -9.8°
Maximum altitude 18:37:51 11° 124° (SE) 1,414 -1.4 -10.0°
Drops below altitude 10° 18:38:38 10° 110° (ESE) 1,452 -1.5 -10.1°
Enters shadow 18:38:43 10° 108° (ESE) 1,461 -1.5 -10.2°
